KONDOR-FKA NO. 2 (62138 NORAD) Tracking and Keplerian Element Data

This shows tracking and keplerian element data for the satellite.

Feedback or suggestion? Click here.




ElementValue
Catalog62138
NameKONDOR-FKA NO. 2
Epoch Orbit1001
Epoch Day34.82730651
Epoch Year2025
RAAN240.6069
Inclination97.4383
Eccentricity0.0001881
Argument of Perigee83.8453
Mean Anonmoly276.2997
Mean Motion15.20862474
Decay Rate9.556E-05
L11 62138U 24223A 25034.82730651 .00009556 00000+0 43557-3 0 9990
L22 62138 97.4383 240.6069 0001881 83.8453 276.2997 15.20862474 10015



Live tracking and technical data element details for KONDOR-FKA NO. 2 (NORAD 62138). KONDOR-FKA NO. 2 can be tracked NOW for your location showing map with azimuth and elevation plus other details from your city location.







IsCatalogInMostPopularTable: catalog: 62138, numindb: 20
Update: records affected: 1



GetName: 62138 KONDOR-FKA NO. 2

Hit Count: updated at: Mon, 19 May 2025 02:43:13 GMT